Airfield :
LOGIN :

Register | Disclaimer

   EN    FR    IT 

 










Legend :    VFR   Marginal VFR   IFR   Intensive IFR   Very Intensive IFR
Visi :
Ceiling :
>= 8 km
>= 3000ft
5 to 8 km
1000 to 3000 ft
1500m to 5 km
500 to 1000 ft
800 to 1500m
200 to 500 ft
< 800m
< 200 ft
Symbols :   Thunderstorms  Fog  Heavy snow  Heavy precipitations  Wind > 20 kt
SIGMETs :     Misc.  Thunderstorms  Icing  Turbulence  Mountain Waves  Volcanic Ashes







- Airport Elevation : 598 ft
- IATA code : BQH
- Download approach charts


EGKB - Biggin Hill

CURRENT METAR :
  • 172120Z 29005KT CAVOK 00/M04 Q1018

EXPIRED METARs :
  • 172050Z 28005KT 250V310 CAVOK 01/M04 Q1017
  • 172020Z 30007KT CAVOK 01/M04 Q1017
  • 171950Z 32006KT CAVOK 01/M04 Q1017
  • 171920Z 30006KT CAVOK 01/M04 Q1017
  • 171850Z 29007KT 260V320 CAVOK 01/M04 Q1017

TAF TAF EGKB
Valid from the 17 at 21:00 until the 17 at 23:00 UTC


171953Z 1721/1723 30006KT 9999 FEW045
PROB30 1721/1723 8000
No reported NOTAMs for that airfield.



MET'MAP, your aeronautical weather chart ! - Copyright ORBIFLY December 2007 - Disclaimer

ORBIFLY MET'MAP TEAM :

Programming & Development : Alexandra Zaïnal
Concept & Development : Baudouin d'Aumeries
Co-Development & Prog : Marc-Olivier Méhu
Technical & hardware support : Manuel Goepfert

Contact : metmap@orbifly.com




SOURCES & CREDITS :

   NOAA